Погода в Ойонна

Франция     46°15′33″N   5°39′28″E
темп.,
°C
ветер,
м/с
пор.,
м/с
влажн.,
%
обл.,
%
осадки,
мм/ч
давл.,
гПа
погр.,
м
28 июня, вт
вт2823:00+12с229931 0.0 102245
02:00+12с249971 0.1 1021112
05:00+12в229896 0.4 102044
08:00+14в1597100 1.3 1019498
11:00+15ссв139292 0.4 1018530
14:00+19ссз2370100 0.6 10161117
17:00+17сз2291100 0.4 1017410
20:00+15юв1198100 1.8 101733
29 июня, ср
ср2923:00+13всв119750 0.4 101811
02:00+14ю019692 0.4 101711
05:00+14юз0096100 0.1 101610
08:00+15зсз119782 0.3 101646
11:00+20сз117521 0.4 1016753
14:00+22сз225392 0.5 10141583
17:00+23ссз224958 0.0 10131512
20:00+21сз11704 0.1 101316
30 июня, чт
чт3023:00+15в22850 0.0 101421
02:00+14вюв22940 0.0 101332
05:00+14вюв22965 0.0 101230
08:00+17ююз018175 0.0 1013116
11:00+23зюз2352100 0.0 10121011
14:00+23зсз435199 0.0 10131283
17:00+15сз3591100 0.3 1015684
20:00+12ссв2699100 6.2 1017303
1 июля, пт
пт123:00+11ссз12100100 0.8 1018199
02:00+10с1299100 1.9 1020198
05:00+9сз11100100 3.4 102046
08:00+10ссз239989 3.4 1020247
11:00+13с247550 0.1 1020826
14:00+17с2355100 0.1 10201590
17:00+18ссв234923 0.0 10211610
20:00+17ссв23660 0.0 1021110
2 июля, сб
сб223:00+11в22935 0.0 102320
02:00+10в22940 0.0 102331
05:00+9в22950 0.0 102333
08:00+13вюв23792 0.0 1022264
11:00+20в12520 0.0 1022857
14:00+24з01390 0.0 10211334
17:00+25з22370 0.0 10201637
20:00+21зсз11680 0.0 102111